Other Surface Observations
Issued by NWS Tucson, AZ

Home | Current Version | Previous Version | Text Only | Print | Product List | Glossary On
Versions: 1 2 3 4 5 6 7 8 9 10 11 12 13 14 15 16 17 18 19 20 21 22 23 24 25 26 27 28 29 30 31 32 33 34 35 36 37 38 39 40 41 42 43 44 45 46 47 48 49 50
000
SXUS55 KTWC 211916
OSOTWC

WEATHER ROUNDUP FOR SOUTHEAST ARIZONA
NATIONAL WEATHER SERVICE TUCSON AZ
1215 PM MST THU AUG 21 2014

AZZ504>506-514-212015-
LOCATION       SKY/WX    TMP DP  RH WIND       PRES   REMARKS
TUCSON         CLOUDY    83  62  49 W8        30.05F
DAVIS-MONTHAN  CLOUDY    82  63  52 W5        30.04S
CHILDRENS PARK N/A       82  63  52 NW1               PIMA CO DEQ
ALVERNON/22ND  N/A      N/A N/A N/A N/A               PIMA CO DEQ
CHERRY/GLENN   N/A      N/A N/A N/A N/A               PIMA CO DEQ
TANGERINE      N/A       81 N/A N/A NW3               PIMA CO DEQ
CONTL RANCH    N/A       83  64  53 N4                PIMA CO DEQ
GRANT/1ST      N/A       83  63  51 NE1               PIMA CO DEQ
CRAYCROFT/22ND N/A      N/A N/A N/A N/A               PIMA CO DEQ
GOLFLINKS/KOLB N/A      N/A N/A N/A N/A               PIMA CO DEQ
AJO/12TH       N/A       83  65  55 SW3               PIMA CO DEQ
SAGUARO EAST   N/A      N/A N/A N/A N/A               PIMA CO DEQ
FAIRGROUNDS    N/A       81 N/A N/A W4                PIMA CO DEQ
SAGUARO        N/A       83  62  49 CALM              *SABINO CYN
SAN CARLOS     N/A       84  59  43 SW3               *SAN CARLOS
GREEN VALLEY   N/A       80  62  54 S5                PIMA CO DEQ
HORSE CAMP CYN N/A       78  54  44 W12G20            *ARAVAIPA CYN
RINCON MTNS    N/A       64  54  71 SW2               *NR MANNING CAMP
$$

AZZ509>511-212015-
LOCATION       SKY/WX    TMP DP  RH WIND       PRES   REMARKS
SAFFORD        SUNNY     87  57  35 W13       30.02F
STRAY HORSE    N/A       72  46  40 SE5G10            *
TRAIL CABIN    N/A       76  48  37 N3                *N OF GRANVILLE
BLACK HILLS    N/A       84  56  38 NW12G20           *N OF FT THOMAS
DRY LAKE       N/A       71  52  51 SW6G12            *NATANES MTNS
NOON CREEK     N/A       78  58  51 NE3G10            *PINALENO MTNS
COLUMBINE      N/A       63  45  51 SW6G11            *PINALENO MTNS
GUTHRIE        N/A       76  51  41 SW3G10            *SW OF GUTHRIE
$$

AZZ502-503-513-212015-
LOCATION       SKY/WX    TMP DP  RH WIND       PRES   REMARKS
NOGALES        CLOUDY    78  61  55 W5        30.11F
SELLS          N/A       83  63  51 NW4               *
SASABE         N/A       77  64  65 SE3               *ALTAR VLY
HOPKINS        N/A       66  54  66 E5                *SANTA RITA MTNS
CARR CYN       N/A       74  57  55 S2                *W OF HEREFORD
$$

AZZ507-508-512-212015-
LOCATION       SKY/WX    TMP DP  RH WIND       PRES   REMARKS
SIERRA VISTA   PTSUNNY   77  57  50 NE5       30.16S
DOUGLAS        SUNNY     81  59  47 CALM      30.11F
EMPIRE MTNS    N/A       79  60  53 N5                *LAS CIENEGAS NCA
MULESHOE RANCH N/A       79  58  48 NW10G16           *PRESERVE
HEADQUARTERS   N/A       79  55  44 W4G11             *CHIRICAHUA MTNS
$$

.............................NOTES.............................
THIS IS AN AUTOMATED COLLECTIVE WITH MINIMAL QUALITY CONTROL.
PIMA CO DEQ SITES HAVE NONSTANDARD WIND SENSOR HEIGHTS.
PIMA CO DEQ SITES DO NOT REPORT WIND GUSTS.
* INDICATES WIND SENSORS LOCATED AT 20 FEET INSTEAD OF 33 FEET.
..............................KEY..............................
SKY/WX - SKY CONDITION/WEATHER
TMP    - TEMPERATURE IN FAHRENHEIT
DP     - DEWPOINT IN FAHRENHEIT
RH     - RELATIVE HUMIDITY IN PERCENT
WIND   - DIRECTION AND SPEED IN MILES PER HOUR (MPH)
VRB    - VARIABLE WIND DIRECTION
PRES   - MEAN SEA LEVEL PRESSURE IN INCHES OF MERCURY
         F - FALLING PRESSURE   R - RISING PRESSURE
         S - STEADY PRESSURE
VSB    - VISIBILITY IN MILES
HX     - HEAT INDEX IN FAHRENHEIT
WCI    - WIND CHILL INDEX IN FAHRENHEIT
N/A    - NOT AVAILABLE
AFB    - AIR FORCE BASE
         DAVIS-MONTHAN IS DAVIS-MONTHAN AIR FORCE BASE
CYN    - CANYON
MTNS   - MOUNTAINS
NCA    - NATIONAL CONSERVATION AREA
NR     - NEAR
VLY    - VALLEY
CONTL  - CONTINENTAL
PIMA CO DEQ - PIMA COUNTY DEPT OF ENVIRONMENTAL QUALITY



USA.gov is the U.S. government's official web portal to all federal, state and local government web resources and services.